(2020 XB7) |
Classification: Apollo [NEO] SPK-ID: 54100622 |
[ hide orbit diagram ]
For accurate long-term ephemerides, please instead use our Horizons system.This orbit viewer was implemented using two-body methods, and hence should not be used for determining accurate long-term trajectories (over several years or decades) or planetary encounter circumstances.
Orbital Elements at Epoch 2459200.5 (2020-Dec-17.0) TDB
Reference: JPL 10 (heliocentric ecliptic J2000)
Element | Value | Uncertainty (1-sigma) | Units |
e | .5525825518950549 | 0.00060033 | |
a | 2.158847197314509 | 0.0028571 | au |
q | .9659059038709708 | 1.7712e-05 | au |
i | 6.068936266804224 | 0.0048457 | deg |
node | 124.19653927654 | 0.00013687 | deg |
peri | .423578812944896 | 0.00054131 | deg |
M | 348.1086165005873 | 0.023577 | deg |
tp | 2459238.770238412823 (2021-Jan-24.27023841) | 0.00013035 | TDB |
period | 1158.594021401872 3.17 | 2.3 0.006297 | d yr |
n | .3107214376649453 | 0.00061683 | deg/d |
Q | 3.351788490758048 | 0.0044358 | au |
|
| | Orbit Determination Parameters
Additional Information
|
[ show covariance matrix ]
Physical Parameter Table
Parameter |
Symbol |
Value |
Units |
Sigma |
Reference |
Notes |
absolute magnitude |
H |
24.43 |
|
.40372 |
E2021B25 |
autocmod 2.8 |
|
[ show close-approach data ]
|